Bilbao, Spain

2:04 AM CET on February 20, 2017 (GMT +0100)
Bilbao

Weather History for LEBB - October, 2012

Change the Weather History Date:

Wednesday, October 31, 2012

  Actual Average Record
Temperature  
Mean Temperature 50 °F -  
Max Temperature 62 °F 59 °F 82 °F (2014)
Min Temperature 39 °F 45 °F 39 °F (2012)
Degree Days  
Heating Degree Days 14    
Moisture  
Dew Point 43 °F    
Average Humidity 76    
Maximum Humidity 93    
Minimum Humidity 48    
Precipitation  
Precipitation 0.00 in - - ()
Sea Level Pressure  
Sea Level Pressure 29.48 in    
Wind  
Wind Speed 2 mph ()    
Max Wind Speed 7 mph    
Max Gust Speed -    
Visibility 5.9 miles    
Events Fog    
Averages and records for this station are not official NWS values.
T = Trace of Precipitation, MM = Missing Value Source: Averaged Metar Reports

Daily Weather History Graph

Daily Weather History Graph

Search for Another Location

Airport or City:

Trip Planner

Search our weather history database for the weather conditions in past years. The results will help you decide how hot, cold, wet, or windy it might be!

Date:

Astronomy

Oct. 31, 2012 Rise Set
Actual Time 7:45 AM CET 6:04 PM CET
Civil Twilight 7:16 AM CET 6:33 PM CET
Nautical Twilight 6:42 AM CET 7:07 PM CET
Astronomical Twilight 6:09 AM CET 7:40 PM CET
Moon 7:01 PM CET (10/31) 9:16 AM CET (10/31)
Length of Visible Light 11h 17m
Length of Day
10h 18m
Full, 98% of the Moon is Illuminated
Oct 31
Full
Nov 7
Last Quarter
Nov 13
New
Nov 20
First Quarter
Nov 28
Full

Hourly Weather History & Observations

Time (CET) Temp. Windchill Dew Point Humidity Pressure Visibility Wind Dir Wind Speed Gust Speed Precip Events Conditions
5:00 AM 41.0 °F - 37.4 °F 87% 29.53 in - Variable 1.2 mph - N/A   Clear
5:30 AM 41.0 °F - 37.4 °F 87% 29.53 in - Variable 2.3 mph - N/A   Clear
6:00 AM 39.2 °F - 37.4 °F 93% 29.53 in - Variable 1.2 mph - N/A   Clear
6:30 AM 39.2 °F - 37.4 °F 93% 29.53 in - Variable 2.3 mph - N/A   Clear
7:00 AM 39.2 °F 37.0 °F 37.4 °F 93% 29.53 in - East 3.5 mph - N/A   Clear
7:30 AM 39.2 °F 37.0 °F 37.4 °F 93% 29.53 in - East 3.5 mph - N/A   Clear
8:00 AM 39.2 °F 35.9 °F 37.4 °F 93% 29.53 in 5.0 mi East 4.6 mph - N/A Fog Partly Cloudy
8:30 AM 39.2 °F - 37.4 °F 93% 29.53 in 5.0 mi Variable 2.3 mph - N/A Fog Fog
9:00 AM 41.0 °F 39.0 °F 37.4 °F 87% 29.53 in 5.0 mi East 3.5 mph - N/A Fog Partly Cloudy
9:30 AM 42.8 °F - 39.2 °F 87% 29.53 in 5.0 mi Variable 1.2 mph - N/A   Unknown
10:00 AM 44.6 °F - 41.0 °F 87% 29.53 in 5.0 mi Variable 1.2 mph - N/A   Unknown
10:30 AM 48.2 °F - 42.8 °F 82% 29.53 in 5.0 mi Variable 2.3 mph - N/A   Unknown
11:00 AM 51.8 °F - 42.8 °F 71% 29.53 in - Variable 1.2 mph - N/A   Clear
11:30 AM 55.4 °F - 44.6 °F 67% 29.53 in - Variable 1.2 mph - N/A   Clear
12:00 PM 57.2 °F - 44.6 °F 63% 29.53 in - Variable 1.2 mph - N/A   Clear
12:30 PM 59.0 °F - 42.8 °F 55% 29.53 in - Calm Calm - N/A   Clear
1:00 PM 60.8 °F - 42.8 °F 52% 29.50 in 6.2 mi Variable 1.2 mph - N/A   Partly Cloudy
1:30 PM 62.6 °F - 42.8 °F 48% 29.50 in 6.2 mi Variable 1.2 mph - N/A   Partly Cloudy
2:00 PM 62.6 °F - 44.6 °F 52% 29.47 in 6.2 mi NW 3.5 mph - N/A   Partly Cloudy
2:30 PM 62.6 °F - 46.4 °F 55% 29.47 in 6.2 mi WNW 6.9 mph - N/A   Partly Cloudy
3:00 PM 62.6 °F - 46.4 °F 55% 29.44 in 6.2 mi NW 5.8 mph - N/A   Partly Cloudy
3:30 PM 60.8 °F - 46.4 °F 59% 29.44 in 6.2 mi NW 5.8 mph - N/A   Partly Cloudy
4:00 PM 59.0 °F - 46.4 °F 63% 29.44 in 6.2 mi NNW 4.6 mph - N/A   Partly Cloudy
4:30 PM 59.0 °F - 46.4 °F 63% 29.44 in 6.2 mi Variable 2.3 mph - N/A   Partly Cloudy
5:00 PM 59.0 °F - 46.4 °F 63% 29.44 in 6.2 mi Variable 1.2 mph - N/A   Partly Cloudy
5:30 PM 55.4 °F - 48.2 °F 77% 29.44 in 6.2 mi Calm Calm - N/A   Scattered Clouds
6:00 PM 55.4 °F - 48.2 °F 77% 29.44 in 6.2 mi Variable 1.2 mph - N/A   Scattered Clouds
7:00 PM 51.8 °F - 46.4 °F 82% 29.44 in - East 3.5 mph - N/A   Clear
7:30 PM 50.0 °F - 44.6 °F 82% 29.44 in - Variable 1.2 mph - N/A   Clear
8:00 PM 50.0 °F - 44.6 °F 82% 29.44 in - Calm Calm - N/A   Clear
8:30 PM 48.2 °F - 44.6 °F 87% 29.44 in - Calm Calm - N/A   Clear
9:00 PM 48.2 °F - 44.6 °F 87% 29.44 in - Calm Calm - N/A   Clear
9:30 PM 48.2 °F - 44.6 °F 87% 29.44 in - East 3.5 mph - N/A   Clear
10:00 PM 50.0 °F - 42.8 °F 76% 29.44 in 6.2 mi Variable 1.2 mph - N/A   Partly Cloudy
10:30 PM 51.8 °F - 42.8 °F 71% 29.44 in 6.2 mi Variable 1.2 mph - N/A   Scattered Clouds
11:00 PM 50.0 °F - 42.8 °F 76% 29.44 in 6.2 mi Variable 1.2 mph - N/A   Scattered Clouds
11:30 PM 50.0 °F - 42.8 °F 76% 29.42 in 6.2 mi Calm Calm - N/A   Scattered Clouds